Regional Weather Roundup
Issued by NWS State College, PA

Home | Current Version | Previous Version | Text Only | Print | Product List | Glossary On
Versions: 1 2 3 4 5 6 7 8 9 10 11 12 13 14 15 16 17 18 19 20 21 22 23 24 25 26 27 28 29 30 31 32 33 34 35 36 37 38 39 40 41 42 43 44 45 46 47 48 49 50
000
ASUS41 KCTP 290910
RWRCTP

REGIONAL WEATHER ROUNDUP
NATIONAL WEATHER SERVICE STATE COLLEGE PA
500 AM EDT SUN MAR 29 2015

Note: "fair" indicates few or no clouds below 12,000 feet with no
significant weather and/or obstructions to visibility.

* = STATION THAT DOES NOT REPORT PRECIPITATION /E.G. RAIN...SNOW...ETC/
    THUNDER OR FOG.

PAZ002>004-007>009-013>016-020>023-029>032-291000-
WESTERN PENNSYLVANIA

CITY           SKY/WX    TMP DP  RH WIND       PRES   REMARKS
ERIE           CLEAR     19  11  70 S5        30.29S WCI  12
MEADVILLE      CLEAR     17  10  74 SW5       30.25S WCI  10
FRANKLIN*      CLEAR     12   7  79 SW5       30.26S WCI   4
NEW CASTLE     FAIR      14  10  84 CALM      30.31F
BEAVER COUNTY  NOT AVBL
BUTLER*        CLEAR     14   9  79 CALM      30.30S
PITTSBURGH INT CLEAR     17   8  67 CALM      30.30S
PITTSBURGH     CLEAR     18   5  57 SW7       30.29S WCI   9
INDIANA*       CLEAR     12   9  85 CALM      30.31S
LATROBE        CLEAR     14   9  79 SW5       30.33R WCI   6
WASHINGTON CO* CLEAR     10   3  72 CALM      30.32S
$$

PAZ004>006-010>012-017>019-024>028-033>037-041-042-045-046-049>053-291000-
CENTRAL PENNSYLVANIA

CITY           SKY/WX    TMP DP  RH WIND       PRES   REMARKS
BRADFORD       CLEAR     10   6  84 W5        30.17S WCI   2
DUBOIS         CLEAR     13   6  74 W7        30.21S WCI   3
CLEARFIELD     CLEAR     14   7  73 CALM      30.24R
JOHNSTOWN      CLEAR     14   6  70 W14       30.18R WCI  -1
ALTOONA        CLEAR     17   6  62 NW5       30.24S WCI  10
STATE COLLEGE  CLEAR     18   9  67 W7        30.24S WCI   9
WILLIAMSPORT   CLEAR     19   8  62 W7        30.25R WCI  10
SELINSGROVE    CLEAR     22   8  55 VRB3      30.26R
FT INDIANTOWN  CLEAR     23   5  45 VRB5      30.24R
CAPITAL CITY   CLEAR     23   7  50 W8        30.27R WCI  14
HARRISBURG     CLEAR     24   8  50 NW13      30.26R WCI  12
YORK           CLEAR     20   9  62 W6        30.26R WCI  12
$$

PAZ038>040-043-044-047-048-054-055-060>062-067>071-291000-
EASTERN PENNSYLVANIA

CITY           SKY/WX    TMP DP  RH WIND       PRES   REMARKS
SCRANTON       PTCLDY    20   6  55 N5        30.19R WCI  13
MOUNT POCONO   CLEAR     15   4  61 NW16G23   30.06R WCI  -1
ALLENTOWN      CLEAR     22   5  48 NW3       30.21R
QUAKERTOWN*    SUNNY     23   7  50 NW5       30.20R
READING        CLEAR     22   5  48 NW9       30.23R WCI  12
LANCASTER      CLEAR     22   8  55 NW10      30.24R WCI  11
COATESVILLE    SUNNY     23   7  50 NW13      30.20R WCI  11
POTTSTOWN      CLEAR     22   5  48 NW5       30.23R
BLUE BELL      CLEAR     27  10  50 NW3       30.20R
DOYLESTOWN     PTCLDY    22   7  52 NW8       30.19R WCI  12
WILLOW GROVE   NOT AVBL
NORTH PHILA    CLEAR     26   6  42 NW8       30.22R
PHILADELPHIA   PTCLDY    26   5  40 NW10      30.23R
$$


USA.gov is the U.S. government's official web portal to all federal, state and local government web resources and services.